User: anonymous   Login
Location: Writing-on-Stone Provincial Park
(49.0825°N, 111.6163°W)
Time: 16:28:19
(UTC-07:00)
Language:

BREEZE-M DEB (TANK) - Orbit

View from above orbital plane
View from above orbital plane
View from above satellite
View from above satellite

Ground track
Ground track

The orbit data is extracted from the following two-line orbital elements,

1 29649U 06056B   14349.62077556  .00003486  00000-0  64573-3 0   727
2 29649 049.4736 179.5595 5404948 313.0330 026.9904 04.95600189142215
Epoch (UTC): 15 December 2014 14:53:55
Eccentricity: 0.5404948
inclination: 49.4736°
perigee height: 299 km
apogee height: 16007 km
right ascension of ascending node: 179.5595°
argument of perigee: 313.0330°
revolutions per day: 4.95600189
mean anomaly at epoch: 26.9904°
orbit number at epoch: 14221

The dashed part of the orbit path shows where the satellite is in the earth's shadow,  

DLR